This is the latest recevied weather packets stored in our database for station/object KB1FFS. If no packets are shown the sender has not sent any weather packets the latest 1 day(s).
| Time | Temp. | Humidity | Pressure | Rain* | Wind** | Luminosity | Snow |
|---|---|---|---|---|---|---|---|
| 1777984298 | 21.67° C | 84% | 1004.9 hPa | 0 mm | 0 m/s | 30 W/m² | - |
| 1777983994 | 21.67° C | 84% | 1004.9 hPa | 0 mm | 0.45 m/s, 55° | 28 W/m² | - |
| 1777983692 | 21.67° C | 85% | 1004.9 hPa | 0 mm | 0.45 m/s, 92° | 25 W/m² | - |
| 1777983388 | 21.67° C | 85% | 1004.8 hPa | 0 mm | 0.89 m/s, 115° | 23 W/m² | - |
| 1777983085 | 21.67° C | 85% | 1004.8 hPa | 0 mm | 0.45 m/s, 110° | 19 W/m² | - |
| 1777982781 | 21.11° C | 85% | 1004.7 hPa | 0 mm | 0.45 m/s, 122° | 13 W/m² | - |
| 1777982477 | 21.11° C | 85% | 1004.6 hPa | 0 mm | 0 m/s | 11 W/m² | - |
| 1777982172 | 21.11° C | 85% | 1004.4 hPa | 0 mm | 0.89 m/s, 100° | 7 W/m² | - |
| 1777981869 | 21.11° C | 85% | 1004.7 hPa | 0 mm | 0 m/s | 5 W/m² | - |
| 1777981566 | 21.11° C | 85% | 1004.6 hPa | 0 mm | 0.89 m/s, 16° | 3 W/m² | - |
| 1777981263 | 21.11° C | 85% | 1004.6 hPa | 0 mm | 0.45 m/s, 123° | 2 W/m² | - |
| 1777980959 | 21.11° C | 85% | 1004.4 hPa | 0 mm | 0.89 m/s, 60° | 1 W/m² | - |
| 1777980656 | 21.11° C | 85% | 1004.4 hPa | 0 mm | 1.34 m/s, 43° | 0 W/m² | - |
| 1777980353 | 21.11° C | 85% | 1004.2 hPa | 0 mm | 0.89 m/s, 31° | 0 W/m² | - |
| 1777980051 | 21.11° C | 85% | 1004.3 hPa | 0 mm | 0.89 m/s, 147° | 0 W/m² | - |
| 1777979750 | 21.11° C | 85% | 1004.3 hPa | 0 mm | 0.45 m/s, 38° | 0 W/m² | - |
| 1777979446 | 21.11° C | 85% | 1004.4 hPa | 0 mm | 0.89 m/s, 20° | 0 W/m² | - |
| 1777979143 | 21.11° C | 84% | 1004.3 hPa | 0 mm | 0 m/s | 0 W/m² | - |
| 1777978839 | 21.11° C | 84% | 1004.2 hPa | 0 mm | 1.34 m/s, 81° | 0 W/m² | - |
| 1777978536 | 21.67° C | 84% | 1004.3 hPa | 0 mm | 0.89 m/s, 352° | 0 W/m² | - |
| 1777978232 | 21.67° C | 84% | 1004.2 hPa | 0 mm | 0 m/s | 0 W/m² | - |
| 1777977929 | 21.67° C | 84% | 1004.1 hPa | 0 mm | 0.89 m/s, 58° | 0 W/m² | - |
| 1777977626 | 21.67° C | 84% | 1004.1 hPa | 0 mm | 0.89 m/s, 37° | 0 W/m² | - |
| 1777977323 | 21.67° C | 84% | 1004 hPa | 0 mm | 0.89 m/s, 350° | 0 W/m² | - |
| 1777977021 | 21.67° C | 84% | 1004.2 hPa | 0 mm | 0.89 m/s, 65° | 0 W/m² | - |
* Rain latest hour (hover to see other rain measurements)
** Current wind speed in m/s (hover to see current wind gust speed)